Погода в Шербур-Октевиле

Франция     49°38′08″N   1°37′01″W
темп.,
°C
ветер,
м/с
пор.,
м/с
влажн.,
%
обл.,
%
осадки,
мм/ч
давл.,
гПа
погр.,
м
20 апреля, вт
вт2023:00+8юв34775 0.0 101990
02:00+8вюв34755 0.0 101892
05:00+9в23755 0.0 101866
08:00+9в34765 0.0 1018110
11:00+10в45795 0.0 1018252
14:00+10всв55805 0.0 1018321
17:00+10всв44775 0.0 1017247
20:00+10св33785 0.0 1017105
21 апреля, ср
ср2123:00+9св33805 0.0 101836
02:00+9всв34812 0.0 101857
05:00+9всв337994 0.0 101751
08:00+10всв4784100 0.0 1018173
11:00+10всв698485 0.0 1019371
14:00+10всв811855 0.0 1020490
17:00+10всв913835 0.0 1019500
20:00+9всв1114820 0.0 1020654
22 апреля, чт
чт2223:00+8всв1215800 0.0 1022644
02:00+8всв1214770 0.0 1023662
05:00+8всв1012730 0.0 1023656
08:00+8в1112740 0.0 1024679
11:00+8в1213635 0.0 1025716
14:00+8в1113675 0.0 1026720
17:00+9всв1112715 0.0 1025637
20:00+9всв1013800 0.0 1026537
23 апреля, пт
пт2323:00+9всв1114820 0.0 1027541
02:00+9в1013820 0.0 1026543
05:00+8в912780 0.0 1027513
08:00+8в1013785 0.0 1026538
11:00+9в1013720 0.0 1027587
14:00+9в1012720 0.0 1027615
17:00+10в1012766 0.0 1026422
20:00+10всв101480100 0.0 1025304
24 апреля, сб
сб2423:00+10в1015835 0.0 1025318
02:00+10в915845 0.0 1025369
05:00+9в813845 0.0 1024417
08:00+9в9148459 0.0 1024441
11:00+9в91378100 0.0 1025498
14:00+10всв101381100 0.0 1025468
17:00+10всв101578100 0.0 1024355
20:00+10всв11168099 0.0 1024319